Regional Weather Roundup
Issued by NWS

Home | Current Version | Previous Version | Text Only | Print | Product List | Glossary Off
Versions: 1 2 3 4 5 6 7 8 9 10 11 12 13 14 15 16 17 18 19 20 21 22 23 24 25 26 27 28 29 30 31 32 33 34 35 36 37 38 39 40 41 42 43 44 45 46 47 48 49 50

000
ASUS43 KMPX 210101
RWRMN
WEATHER ROUNDUP FOR MINNESOTA
NATIONAL WEATHER SERVICE TWIN CITIES/CHANHASSEN MN
800 PM CDT FRI APR 20 2018


NOTE: "FAIR" INDICATES FEW OR NO CLOUDS BELOW 12,000 FEET WITH NO
SIGNIFICANT WEATHER AND/OR OBSTRUCTIONS TO VISIBILITY. N/A MEANS
CURRENT SKY AND/OR WEATHER CONDITIONS ARE NOT AVAILABLE.

MNZ060>063-068>070-210200-
   Twin Cities Metro

CITY           SKY/WX    TMP DP  RH WIND       PRES   REMARKS
TWIN CITIES    CLOUDY    48  22  35 S5        30.43S
ST PAUL        FAIR      47  23  38 S5        30.44S
CRYSTAL        FAIR      48  21  34 SW5       30.42S
BLAINE         CLOUDY    48  25  40 SW5       30.42S
LAKEVILLE      FAIR      43  23  45 CALM      30.43F
EDEN PRAIRIE   FAIR      47  25  42 SW3       30.42S
SOUTH ST PAUL  FAIR      46  26  45 CALM      30.43S
LAKE ELMO      FAIR      45  28  53 CALM      30.44S
$$
MNZ001>005-007-008-013>017-022>024-027-028-210200-
   Northwest Minnesota

CITY           SKY/WX    TMP DP  RH WIND       PRES   REMARKS
BEMIDJI        FAIR      51  26  37 S7        30.35S
HALLOCK        FAIR      52  39  62 S7        30.35S
ROSEAU         FAIR      52  37  58 W5        30.35S
WARROAD        FAIR      52  36  54 W7        30.35F
THIEF RVR FALL FAIR      51  34  52 SW3       30.36S
CROOKSTON      FAIR      52  37  58 SW7       30.37R
FOSSTON        FAIR      50  28  43 SW7       30.36S
DETROIT LAKES  FAIR      46  21  36 CALM      30.39S
MOORHEAD       FAIR      50  37  62 S7        30.37S
PARK RAPIDS    FAIR      45  27  49 SW8       30.37S
MAHNOMEN       FAIR      50  29  44 S8        30.36S
$$
MNZ006-009>011-018-025>026-210200-
   North Central Minnesota

CITY           SKY/WX    TMP DP  RH WIND       PRES   REMARKS
BAUDETTE       MOCLDY    51  30  44 N6        30.34S
FLAG ISLAND    FAIR      37  28  70 S7        30.34R
INTL FALLS     FAIR      52  21  29 NE3       30.34R
WASKISH        FAIR      45  28  53 CALM      30.36R
BIG FORK       FAIR      46  27  46 S7        30.36R
LONGVILLE      FAIR      48  21  34 CALM      30.37S
GRAND RAPIDS   FAIR      52  24  33 SW3       30.38S
CRANE LAKE     FAIR      43  19  39 CALM      30.36R
ORR            FAIR      52  12  20 CALM      30.33R
COOK           FAIR      55  19  24 CALM      30.35S
WALKER         FAIR      49  24  38 SW6       30.37S
$$
MNZ012-019>021-037-210200-
   Northeast Minnesota

CITY           SKY/WX    TMP DP  RH WIND       PRES   REMARKS
DULUTH         FAIR      50  25  37 SW7       30.38R
ELY            FAIR      52  10  19 CALM      30.34S
HIBBING        FAIR      46  19  34 CALM      30.35S
EVELETH        FAIR      52  20  28 W3        30.37R
DULUTH HARBOR  FAIR      52  25  35 SW7       30.39S
TWO HARBORS    FAIR      52  27  37 SW3       30.36S
SILVER BAY     FAIR      46  21  36 CALM      30.36S
GRAND MARAIS     N/A     37  30  75 CALM      30.39R
G MARAIS ARPRT FAIR      41  10  28 S3        30.39R
$$
MNZ029>031-032-039>041-046>048-054>057-064-210200-
   West Central Minnesota

CITY           SKY/WX    TMP DP  RH WIND       PRES   REMARKS
FERGUS FALLS   FAIR      46  36  66 S7        30.36F
WHEATON        CLOUDY    45  36  70 SE8       30.41S
MORRIS         MOCLDY    43  36  75 S9        30.39F
ALEXANDRIA     FAIR      49  33  54 S7        30.40F
ELBOW LAKE     FAIR      45  38  79 S10       30.39F
WADENA         FAIR      45  27  49 SE5       30.39S
GLENWOOD       FAIR      43  36  75 S7        30.41S
APPLETON       CLOUDY    41  32  70 S6        30.41S
BENSON         CLOUDY    45  34  65 SW8       30.43S
ORTONVILLE     CLOUDY    39  34  81 SE8       30.40S
MADISON        CLOUDY    39  36  87 SE6       30.41S
WILLMAR        FAIR      43  36  75 S3        30.44F
$$
MNZ033>034-036-042>043-049>051-058-059-210200-
   Central Minnesota

CITY           SKY/WX    TMP DP  RH WIND       PRES   REMARKS
ST CLOUD       FAIR      43  29  57 S5        30.42S
SAUK CENTRE    FAIR      44  32  64 S5        30.41S
PAYNESVILLE    FAIR      44  32  63 S5        30.43S
AITKIN         FAIR      45  18  33 S6        30.39S
PINE RIVER     FAIR      45  21  39 S5        30.41S
BRAINERD       FAIR      46  21  37 S7        30.40S
STAPLES        FAIR      45  18  33 CALM      30.40S
LONG PRAIRIE   FAIR      43  32  65 SE3       30.41S
LITTLE FALLS   FAIR      45  16  31 CALM      30.42S
LITCHFIELD     FAIR      43  28  56 CALM      30.43F
BUFFALO        FAIR      43  28  54 CALM      30.44S
MAPLE LAKE     FAIR      43  30  60 CALM      30.44S
HUTCHINSON     FAIR      41  34  76 CALM      30.44F
$$
MNZ037-044-045-052-053-210200-
   East Central Minnesota

CITY           SKY/WX    TMP DP  RH WIND       PRES   REMARKS
PRINCETON      FAIR      46  21  36 CALM      30.43S
MORA           FAIR      45  21  39 SW3       30.44R
CAMBRIDGE      FAIR      46  28  49 CALM      30.43S
RUSH CITY      FAIR      47  22  37 S3        30.42S
MOOSE LAKE     FAIR      46  21  36 SW5       30.38S
HINCKLEY       FAIR      46  23  39 SW5       30.41S
CLOQUET        FAIR      48  16  27 SW3       30.38F
MCGREGOR       FAIR      46  21  36 S5        30.39F
$$
MNZ071>073-080-081-089-090-097-098-210200-
   Southwest Minnesota

CITY           SKY/WX    TMP DP  RH WIND       PRES   REMARKS
MONTEVIDEO     CLOUDY    39  32  75 S6        30.42S
GRANITE FALLS  CLOUDY    40  34  78 SE8       30.43S
CANBY          CLOUDY    38  33  82 E5        30.41S
MARSHALL       CLOUDY    38  31  76 SE7       30.42S
REDWOOD FALLS  CLOUDY    39  32  76 S6        30.43S
OLIVIA         CLOUDY    41  32  70 S3        30.42S
PIPESTONE      CLOUDY   N/A N/A N/A E7        30.37F
WINDOM         CLOUDY    37  21  52 CALM      30.41F
WORTHINGTON    CLOUDY    36  31  82 E7        30.40F
JACKSON        CLOUDY    34  30  86 E7        30.41F WCI  28
TRACY          CLOUDY    38  32  79 S3        30.41R
SLAYTON        CLOUDY    35  32  87 SE6       30.40F WCI  30
$$
MNZ065>067-074>077-082>085-091>093-210200-
   South Central Minnesota

CITY           SKY/WX    TMP DP  RH WIND       PRES   REMARKS
MANKATO        FAIR      42  25  50 S5        30.44S
NEW ULM        CLOUDY    39  27  60 S3        30.43S
ST JAMES       CLOUDY    37  27  65 CALM      30.44S
FAIRMONT       CLOUDY    36  28  73 E5        30.42F
GLENCOE        FAIR      42  34  73 CALM      30.42F
OWATONNA       FAIR      43  28  56 CALM      30.43S
WASECA         FAIR      39  32  75 CALM      30.44S
ALBERT LEA     FAIR      39  21  48 CALM      30.43R
$$
MNZ078>079-086>088-094>096-210200-
   Southeast Minnesota

CITY           SKY/WX    TMP DP  RH WIND       PRES   REMARKS
ROCHESTER      FAIR      41  28  60 W3        30.43S
RED WING       FAIR      46  18  31 CALM      30.43S
STANTON        FAIR      42  31  64 CALM      30.42S
DODGE CENTER   FAIR      39  27  60 S3        30.43S
WINONA         FAIR      48  25  40 CALM      30.42S
AUSTIN         FAIR      39  25  56 NE3       30.43S
PRESTON        FAIR      42  21  43 CALM      30.43S
$$
ABBREVIATIONS USED IN REMARKS
   TC - TEMPERATURES IN CELSIUS
  WCI - WIND CHILL INDEX
   HX - HEAT INDEX
  VSB - VISIBILITY
$$



USA.gov is the U.S. government's official web portal to all federal, state and local government web resources and services.